Time,TemperatureF,DewpointF,PressureIn,WindDirection,WindDirectionDegrees,WindSpeedMPH,WindSpeedGustMPH,Humidity,HourlyPrecipIn,Conditions,Clouds,dailyrainin,SoftwareType,DateUTC
2013-03-30 00:02:00,69.0,64.0,30.05,NE,36,6.0,9.0,84,0.00,,,0.17,,2013-03-30 10:02:00,
2013-03-30 00:12:00,69.0,64.0,30.05,NE,36,6.0,9.0,84,0.00,,,0.17,,2013-03-30 10:12:00,
2013-03-30 00:22:00,69.0,64.0,30.04,NE,38,3.0,9.0,85,0.00,,,0.17,,2013-03-30 10:22:00,
2013-03-30 00:32:00,69.0,64.0,30.03,NE,42,5.0,8.0,85,0.00,,,0.17,,2013-03-30 10:32:00,
2013-03-30 00:42:00,69.0,64.0,30.03,NE,42,5.0,8.0,85,0.00,,,0.17,,2013-03-30 10:42:00,
2013-03-30 00:52:00,68.0,64.0,30.03,NE,42,2.0,6.0,86,0.00,,,0.17,,2013-03-30 10:52:00,
2013-03-30 01:02:00,68.0,64.0,30.02,NE,37,4.0,8.0,86,0.00,,,0.17,,2013-03-30 11:02:00,
2013-03-30 01:12:00,68.0,64.0,30.02,NE,37,4.0,8.0,86,0.00,,,0.17,,2013-03-30 11:12:00,
2013-03-30 01:22:00,68.0,64.0,30.02,NE,37,7.0,9.0,86,0.00,,,0.17,,2013-03-30 11:22:00,
2013-03-30 01:32:00,69.0,65.0,30.02,NE,47,6.0,8.0,86,0.00,,,0.17,,2013-03-30 11:32:00,
2013-03-30 01:42:00,69.0,65.0,30.02,NE,47,6.0,8.0,86,0.00,,,0.17,,2013-03-30 11:42:00,
2013-03-30 01:52:00,69.0,65.0,30.01,NE,44,0.0,7.0,87,0.00,,,0.17,,2013-03-30 11:52:00,
2013-03-30 02:02:00,69.0,65.0,30.01,NE,44,1.0,5.0,87,0.00,,,0.17,,2013-03-30 12:02:00,
2013-03-30 02:12:00,69.0,65.0,30.01,NE,44,1.0,5.0,87,0.00,,,0.17,,2013-03-30 12:12:00,
2013-03-30 02:22:00,69.0,65.0,30.01,NE,43,0.0,6.0,87,0.00,,,0.17,,2013-03-30 12:22:00,
2013-03-30 02:32:00,69.0,65.0,30.00,NE,42,3.0,7.0,87,0.00,,,0.17,,2013-03-30 12:32:00,
2013-03-30 02:41:00,69.0,65.0,30.00,NE,42,3.0,7.0,87,0.00,,,0.17,,2013-03-30 12:41:00,
2013-03-30 02:53:00,69.0,65.0,30.00,NE,40,0.0,6.0,87,0.00,,,0.17,,2013-03-30 12:53:00,
2013-03-30 03:01:00,69.0,65.0,30.00,NE,40,4.0,6.0,87,0.00,,,0.17,,2013-03-30 13:01:00,
2013-03-30 03:11:00,69.0,65.0,30.00,NE,40,4.0,6.0,87,0.00,,,0.17,,2013-03-30 13:11:00,
2013-03-30 03:22:00,69.0,65.0,29.99,NE,42,2.0,8.0,87,0.00,,,0.17,,2013-03-30 13:22:00,
2013-03-30 03:31:00,69.0,65.0,29.99,NE,43,3.0,9.0,87,0.00,,,0.17,,2013-03-30 13:31:00,
2013-03-30 03:42:00,69.0,65.0,29.99,NE,43,3.0,9.0,87,0.00,,,0.17,,2013-03-30 13:42:00,
2013-03-30 03:52:00,69.0,65.0,29.99,NNE,30,5.0,8.0,87,0.00,,,0.17,,2013-03-30 13:52:00,
2013-03-30 04:01:00,69.0,65.0,29.98,NNE,32,5.0,8.0,87,0.00,,,0.17,,2013-03-30 14:01:00,
2013-03-30 04:11:00,69.0,65.0,29.98,NNE,32,5.0,8.0,87,0.00,,,0.17,,2013-03-30 14:11:00,
2013-03-30 04:22:00,69.0,65.0,29.98,NE,38,6.0,7.0,87,0.00,,,0.17,,2013-03-30 14:22:00,
2013-03-30 04:32:00,69.0,65.0,29.97,NE,40,3.0,7.0,87,0.00,,,0.17,,2013-03-30 14:32:00,
2013-03-30 04:41:00,69.0,65.0,29.97,NE,40,3.0,7.0,87,0.00,,,0.17,,2013-03-30 14:41:00,
2013-03-30 04:52:00,69.0,65.0,29.98,NE,40,3.0,7.0,88,0.00,,,0.17,,2013-03-30 14:52:00,
2013-03-30 05:01:00,69.0,65.0,29.97,NE,45,6.0,8.0,88,0.00,,,0.17,,2013-03-30 15:01:00,
2013-03-30 05:11:00,69.0,65.0,29.97,NE,45,6.0,8.0,88,0.00,,,0.17,,2013-03-30 15:11:00,
2013-03-30 05:21:00,69.0,65.0,29.97,NE,46,4.0,9.0,88,0.00,,,0.17,,2013-03-30 15:21:00,
2013-03-30 05:33:00,69.0,65.0,29.97,NE,46,5.0,5.0,88,0.00,,,0.14,,2013-03-30 15:33:00,
2013-03-30 05:42:00,69.0,65.0,29.97,NE,46,5.0,5.0,88,0.00,,,0.14,,2013-03-30 15:42:00,
2013-03-30 05:52:00,69.0,65.0,29.98,NE,51,5.0,7.0,88,0.00,,,0.12,,2013-03-30 15:52:00,
2013-03-30 06:02:00,69.0,65.0,29.98,NE,49,1.0,5.0,88,0.00,,,0.12,,2013-03-30 16:02:00,
2013-03-30 06:12:00,69.0,65.0,29.99,NE,49,2.0,4.0,88,0.00,,,0.12,,2013-03-30 16:12:00,
2013-03-30 06:22:00,69.0,65.0,29.99,NE,49,2.0,4.0,88,0.00,,,0.12,,2013-03-30 16:22:00,
2013-03-30 06:32:00,69.0,65.0,30.01,NE,49,2.0,2.0,88,0.00,,,0.12,,2013-03-30 16:32:00,
2013-03-30 06:42:00,69.0,65.0,30.01,NE,49,2.0,2.0,88,0.00,,,0.12,,2013-03-30 16:42:00,
2013-03-30 06:52:00,69.0,65.0,30.01,NE,49,0.0,0.0,88,0.00,,,0.11,,2013-03-30 16:52:00,
2013-03-30 07:01:00,69.0,65.0,30.76,ENE,65,0.0,0.0,88,0.00,,,0.10,,2013-03-30 17:01:00,
2013-03-30 07:12:00,69.0,65.0,30.76,ENE,65,0.0,0.0,88,0.00,,,0.10,,2013-03-30 17:12:00,
2013-03-30 07:22:00,69.0,65.0,30.56,ENE,65,2.0,2.0,88,0.00,,,0.08,,2013-03-30 17:22:00,
2013-03-30 07:31:00,69.0,65.0,30.53,ENE,65,0.0,2.0,88,0.00,,,0.08,,2013-03-30 17:31:00,
2013-03-30 07:42:00,69.0,65.0,30.53,ENE,65,0.0,2.0,88,0.00,,,0.08,,2013-03-30 17:42:00,
2013-03-30 07:52:00,69.0,65.0,30.52,ENE,65,3.0,4.0,88,0.00,,,0.08,,2013-03-30 17:52:00,
2013-03-30 08:01:00,69.0,65.0,30.52,NE,44,5.0,9.0,88,0.00,,,0.08,,2013-03-30 18:01:00,
2013-03-30 08:11:00,69.0,65.0,30.52,North,5,3.0,7.0,88,0.00,,,0.00,,2013-03-30 18:11:00,
2013-03-30 08:21:00,69.0,65.0,30.52,North,5,3.0,7.0,88,0.00,,,0.00,,2013-03-30 18:21:00,
2013-03-30 08:31:00,69.0,65.0,30.52,North,0,0.0,5.0,88,0.00,,,0.00,,2013-03-30 18:31:00,
2013-03-30 08:42:00,69.0,65.0,30.52,North,0,0.0,5.0,88,0.00,,,0.00,,2013-03-30 18:42:00,
2013-03-30 08:53:00,69.0,65.0,30.52,North,5,2.0,4.0,88,0.00,,,0.00,,2013-03-30 18:53:00,
2013-03-30 09:01:00,69.0,65.0,30.53,ENE,58,3.0,8.0,88,0.00,,,0.00,,2013-03-30 19:01:00,
2013-03-30 09:11:00,69.0,65.0,30.53,ENE,58,3.0,8.0,88,0.00,,,0.00,,2013-03-30 19:11:00,
2013-03-30 09:21:00,69.0,65.0,30.52,ENE,64,4.0,7.0,88,0.00,,,0.00,,2013-03-30 19:21:00,
2013-03-30 09:31:00,69.0,65.0,30.52,ENE,63,3.0,5.0,88,0.00,,,0.00,,2013-03-30 19:31:00,
2013-03-30 09:41:00,69.0,65.0,30.52,ENE,63,3.0,5.0,88,0.00,,,0.00,,2013-03-30 19:41:00,
2013-03-30 09:52:00,69.0,65.0,30.52,ENE,61,0.0,5.0,88,0.00,,,0.00,,2013-03-30 19:52:00,
2013-03-30 10:01:00,69.0,65.0,30.52,NNE,26,5.0,5.0,88,0.00,,,0.00,,2013-03-30 20:01:00,
2013-03-30 10:11:00,69.0,65.0,30.52,NNE,26,5.0,5.0,88,0.00,,,0.00,,2013-03-30 20:11:00,
2013-03-30 10:21:00,69.0,65.0,30.51,North,355,0.0,6.0,88,0.00,,,0.00,,2013-03-30 20:21:00,
2013-03-30 10:32:00,72.0,67.0,30.51,NW,315,12.0,12.0,85,0.00,,,0.00,,2013-03-30 20:32:00,
2013-03-30 10:42:00,72.0,67.0,30.51,NW,315,12.0,12.0,85,0.00,,,0.00,,2013-03-30 20:42:00,
2013-03-30 10:52:00,72.0,67.0,30.50,NW,307,4.0,13.0,84,0.00,,,0.00,,2013-03-30 20:52:00,
2013-03-30 11:01:00,74.0,68.0,30.50,North,351,8.0,13.0,82,0.00,,,0.00,,2013-03-30 21:01:00,
2013-03-30 11:11:00,74.0,68.0,30.50,North,351,8.0,13.0,82,0.00,,,0.00,,2013-03-30 21:11:00,
2013-03-30 11:22:00,73.0,66.0,30.50,NNW,333,7.0,17.0,78,0.00,,,0.00,,2013-03-30 21:22:00,
2013-03-30 11:32:00,72.0,66.0,30.50,NW,318,7.0,19.0,82,0.00,,,0.00,,2013-03-30 21:32:00,
2013-03-30 11:42:00,72.0,66.0,30.50,NW,318,7.0,19.0,82,0.00,,,0.00,,2013-03-30 21:42:00,
2013-03-30 11:53:00,72.0,68.0,30.50,NE,40,5.0,13.0,86,0.00,,,0.01,,2013-03-30 21:53:00,
2013-03-30 12:02:00,72.0,68.0,30.50,NE,51,9.0,15.0,87,0.00,,,0.01,,2013-03-30 22:02:00,
2013-03-30 12:12:00,72.0,68.0,30.50,NE,51,9.0,15.0,87,0.00,,,0.01,,2013-03-30 22:12:00,
2013-03-30 12:23:00,70.0,67.0,30.50,NNE,27,8.0,18.0,89,0.05,,,0.07,,2013-03-30 22:23:00,
2013-03-30 12:32:00,70.0,67.0,30.49,NE,44,8.0,13.0,91,0.05,,,0.07,,2013-03-30 22:32:00,
2013-03-30 12:42:00,70.0,67.0,30.49,NE,44,8.0,13.0,91,0.05,,,0.07,,2013-03-30 22:42:00,
2013-03-30 12:53:00,71.0,68.0,30.49,North,5,3.0,13.0,90,0.05,,,0.07,,2013-03-30 22:53:00,
2013-03-30 13:02:00,71.0,68.0,30.49,NNW,348,11.0,14.0,90,0.05,,,0.07,,2013-03-30 23:02:00,
2013-03-30 13:12:00,71.0,68.0,30.49,NNW,348,11.0,14.0,90,0.05,,,0.07,,2013-03-30 23:12:00,
2013-03-30 13:22:00,70.0,67.0,30.48,North,5,3.0,14.0,90,0.01,,,0.08,,2013-03-30 23:22:00,
2013-03-30 13:32:00,70.0,67.0,30.47,NNE,21,6.0,15.0,90,0.01,,,0.08,,2013-03-30 23:32:00,
2013-03-30 13:42:00,70.0,67.0,30.47,NNE,21,6.0,15.0,90,0.01,,,0.08,,2013-03-30 23:42:00,
2013-03-30 13:52:00,70.0,67.0,30.47,East,80,6.0,16.0,90,0.05,,,0.13,,2013-03-30 23:52:00,
2013-03-30 14:02:00,70.0,67.0,30.47,NE,36,3.0,17.0,89,0.07,,,0.14,,2013-03-31 00:02:00,
2013-03-30 14:11:00,70.0,67.0,30.47,NE,36,3.0,17.0,89,0.07,,,0.14,,2013-03-31 00:11:00,
2013-03-30 14:22:00,70.0,66.0,30.46,NNE,18,4.0,18.0,88,0.05,,,0.14,,2013-03-31 00:22:00,
2013-03-30 14:31:00,71.0,67.0,30.45,NNE,24,12.0,19.0,86,0.05,,,0.14,,2013-03-31 00:31:00,
2013-03-30 14:42:00,71.0,67.0,30.45,NNE,24,12.0,19.0,86,0.05,,,0.14,,2013-03-31 00:42:00,
2013-03-30 14:52:00,73.0,68.0,30.45,North,355,4.0,17.0,83,0.00,,,0.14,,2013-03-31 00:52:00,
2013-03-30 15:01:00,74.0,67.0,30.44,NNE,25,11.0,18.0,78,0.00,,,0.14,,2013-03-31 01:01:00,
2013-03-30 15:11:00,74.0,67.0,30.44,NNE,25,11.0,18.0,78,0.00,,,0.14,,2013-03-31 01:11:00,
2013-03-30 15:21:00,74.0,67.0,30.43,NNE,32,3.0,16.0,79,0.00,,,0.14,,2013-03-31 01:21:00,
2013-03-30 15:31:00,74.0,67.0,30.43,NE,51,8.0,21.0,78,0.00,,,0.14,,2013-03-31 01:31:00,
2013-03-30 15:42:00,74.0,67.0,30.43,NE,51,8.0,21.0,78,0.00,,,0.14,,2013-03-31 01:42:00,
2013-03-30 15:52:00,74.0,66.0,30.43,NW,313,9.0,20.0,76,0.00,,,0.14,,2013-03-31 01:52:00,
2013-03-30 16:01:00,73.0,64.0,30.43,North,10,13.0,24.0,74,0.00,,,0.14,,2013-03-31 02:01:00,
2013-03-30 16:11:00,73.0,64.0,30.43,North,10,13.0,24.0,74,0.00,,,0.14,,2013-03-31 02:11:00,
2013-03-30 16:21:00,73.0,65.0,30.43,NNE,30,11.0,24.0,76,0.00,,,0.14,,2013-03-31 02:21:00,
2013-03-30 16:31:00,73.0,65.0,30.43,NNE,24,10.0,23.0,75,0.00,,,0.14,,2013-03-31 02:31:00,
2013-03-30 16:42:00,73.0,65.0,30.43,NNE,24,10.0,23.0,75,0.00,,,0.14,,2013-03-31 02:42:00,
2013-03-30 16:52:00,73.0,64.0,30.42,North,0,7.0,23.0,73,0.00,,,0.14,,2013-03-31 02:52:00,
2013-03-30 17:01:00,72.0,63.0,30.42,NNW,329,19.0,24.0,73,0.00,,,0.14,,2013-03-31 03:01:00,
2013-03-30 17:11:00,72.0,63.0,30.42,NNW,329,19.0,24.0,73,0.00,,,0.14,,2013-03-31 03:11:00,
2013-03-30 17:21:00,73.0,64.0,30.42,NE,37,15.0,22.0,73,0.00,,,0.14,,2013-03-31 03:21:00,
2013-03-30 17:32:00,73.0,64.0,30.42,NNE,21,11.0,22.0,73,0.00,,,0.14,,2013-03-31 03:32:00,
2013-03-30 17:42:00,73.0,64.0,30.42,NNE,21,11.0,22.0,73,0.00,,,0.14,,2013-03-31 03:42:00,
2013-03-30 17:53:00,72.0,63.0,30.42,North,5,13.0,21.0,73,0.00,,,0.14,,2013-03-31 03:53:00,
2013-03-30 18:02:00,72.0,-99.9,30.43,NNW,335,11.0,26.0,74,0.00,,,0.14,,2013-03-31 04:02:00,
2013-03-30 18:12:00,72.0,63.0,30.43,NNW,335,11.0,26.0,74,0.00,,,0.14,,2013-03-31 04:12:00,
2013-03-30 18:22:00,72.0,64.0,30.44,NW,324,11.0,18.0,76,0.00,,,0.14,,2013-03-31 04:22:00,
2013-03-30 18:32:00,71.0,63.0,30.43,NE,50,13.0,15.0,76,0.00,,,0.14,,2013-03-31 04:32:00,
2013-03-30 18:42:00,71.0,63.0,30.43,NE,50,13.0,15.0,76,0.00,,,0.14,,2013-03-31 04:42:00,
2013-03-30 18:52:00,71.0,63.0,30.42,NE,40,6.0,16.0,76,0.00,,,0.14,,2013-03-31 04:52:00,
2013-03-30 19:02:00,70.0,62.0,30.43,North,355,14.0,17.0,77,0.00,,,0.14,,2013-03-31 05:02:00,
2013-03-30 19:12:00,70.0,62.0,30.43,North,355,14.0,17.0,77,0.00,,,0.14,,2013-03-31 05:12:00,
2013-03-30 19:22:00,70.0,63.0,30.44,NE,35,9.0,23.0,78,0.00,,,0.14,,2013-03-31 05:22:00,
2013-03-30 19:32:00,70.0,63.0,30.46,NNE,25,13.0,18.0,79,0.00,,,0.14,,2013-03-31 05:32:00,
2013-03-30 19:41:00,70.0,63.0,30.46,NNE,25,13.0,18.0,79,0.00,,,0.14,,2013-03-31 05:41:00,
2013-03-30 19:53:00,70.0,64.0,30.45,NNE,24,4.0,22.0,80,0.00,,,0.14,,2013-03-31 05:53:00,
2013-03-30 20:01:00,70.0,64.0,30.47,NE,42,8.0,19.0,81,0.00,,,0.14,,2013-03-31 06:01:00,
2013-03-30 20:11:00,70.0,64.0,30.47,NE,42,8.0,19.0,81,0.00,,,0.14,,2013-03-31 06:11:00,
2013-03-30 20:22:00,69.0,63.0,30.47,NE,40,5.0,14.0,82,0.00,,,0.14,,2013-03-31 06:22:00,
2013-03-30 20:32:00,69.0,64.0,30.48,NNE,15,2.0,20.0,83,0.00,,,0.14,,2013-03-31 06:32:00,
2013-03-30 20:42:00,69.0,64.0,30.48,NNE,15,2.0,20.0,83,0.00,,,0.14,,2013-03-31 06:42:00,
2013-03-30 20:52:00,69.0,64.0,30.49,NE,45,1.0,23.0,84,0.00,,,0.15,,2013-03-31 06:52:00,
2013-03-30 21:01:00,68.0,63.0,30.49,East,94,8.0,15.0,84,0.00,,,0.15,,2013-03-31 07:01:00,
2013-03-30 21:11:00,68.0,63.0,30.49,East,94,8.0,15.0,84,0.00,,,0.15,,2013-03-31 07:11:00,
2013-03-30 21:21:00,68.0,63.0,30.51,NNW,339,6.0,8.0,85,0.00,,,0.15,,2013-03-31 07:21:00,
2013-03-30 21:31:00,68.0,63.0,30.51,ESE,115,7.0,19.0,85,0.00,,,0.15,,2013-03-31 07:31:00,
2013-03-30 21:42:00,68.0,63.0,30.51,ESE,115,7.0,19.0,85,0.00,,,0.15,,2013-03-31 07:42:00,
2013-03-30 21:53:00,68.0,63.0,30.52,East,84,13.0,17.0,85,0.00,,,0.15,,2013-03-31 07:53:00,
2013-03-30 22:01:00,68.0,63.0,30.57,NNE,32,7.0,18.0,85,0.00,,,0.15,,2013-03-31 08:01:00,
2013-03-30 22:11:00,68.0,63.0,30.57,NNE,32,7.0,18.0,85,0.00,,,0.15,,2013-03-31 08:11:00,
2013-03-30 22:21:00,68.0,63.0,30.78,NE,40,9.0,17.0,84,0.00,,,0.15,,2013-03-31 08:21:00,
2013-03-30 22:31:00,68.0,63.0,30.03,ENE,64,8.0,19.0,84,0.00,,,0.15,,2013-03-31 08:31:00,
2013-03-30 22:41:00,68.0,63.0,30.03,ENE,64,8.0,19.0,84,0.00,,,0.15,,2013-03-31 08:41:00,
2013-03-30 22:52:00,68.0,63.0,30.03,NE,41,6.0,18.0,84,0.00,,,0.15,,2013-03-31 08:52:00,
2013-03-30 23:01:00,68.0,62.0,30.03,East,90,10.0,14.0,82,0.00,,,0.15,,2013-03-31 09:01:00,
2013-03-30 23:11:00,68.0,62.0,30.03,East,90,10.0,14.0,82,0.00,,,0.15,,2013-03-31 09:11:00,
2013-03-30 23:21:00,68.0,62.0,30.03,NNW,335,4.0,15.0,82,0.00,,,0.15,,2013-03-31 09:21:00,
2013-03-30 23:32:00,68.0,62.0,30.02,NE,38,8.0,12.0,81,0.00,,,0.15,,2013-03-31 09:32:00,
2013-03-30 23:42:00,68.0,62.0,30.02,NE,38,8.0,12.0,81,0.00,,,0.15,,2013-03-31 09:42:00,
2013-03-30 23:53:00,67.0,61.0,30.02,NE,35,9.0,15.0,80,0.00,,,0.15,,2013-03-31 09:53:00,